sat.trackr.live / text

‹ back to catalog

STARLINK-32960

NORAD 63197 · 2025-048Q

PAYLOAD ACTIVE UNKNOWN

§ Identity

Operator
Country
US
Launch date
2025-03-13
Launch site
AFETR
Launch vehicle
Mass (kg)
RCS (m²)

Purposes: comms

External: N2YO · Heavens-Above · Gunter

§ Orbital elements

Epoch: 2026-09-20T04:06:23.002848Z

Period
94.27 min
Inclination
43.0025°
Eccentricity
0.0001844
Mean motion
15.27580227 rev/d
Perigee alt
481.8 km
Apogee alt
484.3 km
Semi-major
6,861.2 km
B*
3.5026e-4
RAAN
67.1589°
Arg perigee
263.5844°
Mean anomaly
96.4797°
Rev number
8,683

§ Raw data

STARLINK-329601 63197U 25048Q   26263.17109957  .00009389  00000+0  35026-3 0  99902 63197  43.0025  67.1589 0001844 263.5844  96.4797 15.27580227 86833

JSON: /api/v1/satellites/63197 · /tle

For live sub-satellite position, see the globe view (requires WebGL).

§ Visibility from observer

Set your observer location to see the next 7 days of passes ≥ 10°. The values pass through the URL so the page stays shareable.

No JS? Fill the form by hand. The geolocation button needs JavaScript.